{"data":{"norad_id":55360,"intl_designator":"2023-013AF","name":"STARLINK-5664","alt_names":[],"object_type":"PAYLOAD","status":"ACTIVE","operator":null,"country":"US","launch_date":"2023-01-26","launch_site_code":"AFETR","launch_vehicle":null,"mission":null,"orbit_class":"UNKNOWN","rcs_meters":null,"size_class":null,"mass_kg":null,"dimensions":null,"purposes":["comms"],"wikipedia_slug":null,"has_3d_model":false,"image_url":null,"decayed_at":null,"tle_current":{"epoch":"2026-05-24T23:44:56.929056Z","epoch_age_seconds":75990,"freshness":"FRESH","line1":"1 55360U 23013AF  26144.98954779  .00000392  00000+0  23780-4 0  9990","line2":"2 55360  43.0013 250.5020 0001108 280.2878  79.7848 15.27574998183137","mean_motion":15.27574998,"eccentricity":0.0001108,"inclination_deg":43.0013,"raan_deg":250.502,"arg_perigee_deg":280.2878,"mean_anomaly_deg":79.7848,"bstar":2.378e-5,"rev_number":18313,"period_min":94.267057387385,"perigee_km":482.303852789,"apogee_km":483.82429494697,"semimajor_km":6861.201073868,"source":"CELESTRAK","updated_at":"2026-05-25T13:38:17.765655Z"}}}